• In Hungary
  • List of Countries
  • For 7 days
  • Water Temperature
  • Satellite Maps
  • Weather Map
  • News
  • Weather Widgets
  • user-avatar
    Login

    Hourly Weather Selo-Novinok

    Today, 22 September, Saturday

    Time Temperature Precipitation Wind Pressure Humidity
    00:00 +17°C° 0 mm 3 mps 742 mmHg 91%
    01:00 +17°C° 0 mm 3 mps 742 mmHg 91%
    02:00 +16°C° 0 mm 3 mps 741 mmHg 93%
    03:00 +16°C° 0 mm 3 mps 741 mmHg 91%
    04:00 +16°C° 0 mm 3 mps 741 mmHg 89%
    05:00 +15°C° 0 mm 4 mps 740 mmHg 86%
    06:00 +17°C° 0 mm 4 mps 740 mmHg 81%
    07:00 +17°C° 0 mm 5 mps 739 mmHg 75%
    08:00 +19°C° 0 mm 5 mps 739 mmHg 68%
    09:00 +21°C° 0 mm 6 mps 738 mmHg 62%
    10:00 +22°C° 0 mm 6 mps 738 mmHg 55%
    11:00 +23°C° 0 mm 6 mps 738 mmHg 48%
    12:00 +24°C° 0 mm 6 mps 737 mmHg 47%
    13:00 +24°C° 0 mm 6 mps 737 mmHg 46%
    14:00 +24°C° 0 mm 6 mps 737 mmHg 45%
    15:00 +22°C° 0.3 mm 5 mps 737 mmHg 57%
    16:00 +20°C° 0.3 mm 4 mps 737 mmHg 69%
    17:00 +17°C° 0.3 mm 4 mps 736 mmHg 80%
    18:00 +15°C° 0.4 mm 4 mps 737 mmHg 84%
    19:00 +13°C° 0.4 mm 3 mps 737 mmHg 87%
    20:00 +12°C° 0.4 mm 3 mps 737 mmHg 90%
    21:00 +11°C° 0.4 mm 3 mps 737 mmHg 91%
    22:00 +10°C° 0.4 mm 3 mps 737 mmHg 91%
    23:00 +10°C° 0.4 mm 3 mps 737 mmHg 92%

    Tomorrow, 23 September, Sunday

    Time Temperature Precipitation Wind Pressure Humidity
    00:00 +10°C° 0.5 mm 3 mps 737 mmHg 92%
    01:00 +10°C° 0.5 mm 3 mps 737 mmHg 93%
    02:00 +10°C° 0.5 mm 3 mps 737 mmHg 94%
    03:00 +10°C° 0.4 mm 3 mps 737 mmHg 94%
    04:00 +9°C° 0.4 mm 2 mps 737 mmHg 94%
    05:00 +9°C° 0.4 mm 2 mps 737 mmHg 94%
    06:00 +9°C° 0 mm 3 mps 736 mmHg 93%
    07:00 +10°C° 0 mm 3 mps 736 mmHg 92%
    08:00 +10°C° 0 mm 3 mps 736 mmHg 90%
    09:00 +11°C° 0 mm 3 mps 736 mmHg 84%
    10:00 +11°C° 0 mm 4 mps 736 mmHg 78%
    11:00 +12°C° 0 mm 4 mps 736 mmHg 72%
    12:00 +12°C° 0.2 mm 4 mps 736 mmHg 71%
    13:00 +12°C° 0.2 mm 4 mps 736 mmHg 70%
    14:00 +12°C° 0.2 mm 4 mps 735 mmHg 70%
    15:00 +12°C° 0.1 mm 4 mps 735 mmHg 72%
    16:00 +11°C° 0.1 mm 3 mps 735 mmHg 74%
    17:00 +11°C° 0.1 mm 3 mps 735 mmHg 77%
    18:00 +10°C° 0 mm 3 mps 735 mmHg 80%
    19:00 +9°C° 0 mm 3 mps 735 mmHg 84%
    20:00 +8°C° 0 mm 3 mps 735 mmHg 88%
    21:00 +8°C° 0 mm 3 mps 735 mmHg 89%
    22:00 +8°C° 0 mm 3 mps 735 mmHg 90%
    23:00 +7°C° 0 mm 3 mps 735 mmHg 92%

    Day after tomorrow, 24 September, Monday

    Time Temperature Precipitation Wind Pressure Humidity
    00:00 +7°C° 0 mm 3 mps 735 mmHg 93%
    01:00 +7°C° 0 mm 3 mps 735 mmHg 94%
    02:00 +7°C° 0 mm 3 mps 735 mmHg 96%
    03:00 +7°C° 0 mm 3 mps 735 mmHg 95%
    04:00 +7°C° 0 mm 3 mps 735 mmHg 94%
    05:00 +7°C° 0 mm 3 mps 735 mmHg 93%
    06:00 +7°C° 0 mm 3 mps 735 mmHg 91%
    07:00 +8°C° 0 mm 3 mps 735 mmHg 89%
    08:00 +8°C° 0 mm 3 mps 735 mmHg 88%
    09:00 +9°C° 0 mm 2 mps 735 mmHg 82%
    10:00 +10°C° 0 mm 2 mps 735 mmHg 77%
    11:00 +12°C° 0 mm 2 mps 735 mmHg 72%
    12:00 +12°C° 0.1 mm 1 mps 735 mmHg 70%
    13:00 +13°C° 0.1 mm 1 mps 734 mmHg 68%
    14:00 +13°C° 0.1 mm 1 mps 734 mmHg 66%
    15:00 +12°C° 0.4 mm 1 mps 734 mmHg 73%
    16:00 +10°C° 0.4 mm 2 mps 733 mmHg 79%
    17:00 +9°C° 0.4 mm 2 mps 733 mmHg 86%
    18:00 +9°C° 0.6 mm 2 mps 732 mmHg 88%
    19:00 +8°C° 0.6 mm 3 mps 732 mmHg 91%
    20:00 +8°C° 0.6 mm 3 mps 732 mmHg 93%
    21:00 +7°C° 1 mm 4 mps 731 mmHg 93%
    22:00 +7°C° 1 mm 4 mps 731 mmHg 92%
    23:00 +6°C° 1 mm 5 mps 730 mmHg 92%

    25 September, Tuesday

    Time Temperature Precipitation Wind Pressure Humidity
    00:00 +6°C° 1.2 mm 5 mps 730 mmHg 91%
    01:00 +5°C° 1.2 mm 6 mps 730 mmHg 91%
    02:00 +5°C° 1.2 mm 6 mps 729 mmHg 90%
    03:00 +5°C° 0.9 mm 6 mps 730 mmHg 89%
    04:00 +4°C° 0.9 mm 7 mps 730 mmHg 88%
    05:00 +4°C° 0.9 mm 7 mps 730 mmHg 87%
    06:00 +4°C° 0.4 mm 7 mps 731 mmHg 86%
    07:00 +4°C° 0.4 mm 7 mps 731 mmHg 85%
    08:00 +4°C° 0.4 mm 7 mps 732 mmHg 83%
    09:00 +4°C° 0.1 mm 7 mps 733 mmHg 80%
    10:00 +5°C° 0.1 mm 7 mps 733 mmHg 76%
    11:00 +6°C° 0.1 mm 7 mps 734 mmHg 73%
    12:00 +6°C° 0 mm 7 mps 735 mmHg 70%
    13:00 +6°C° 0 mm 7 mps 736 mmHg 68%
    14:00 +6°C° 0 mm 7 mps 737 mmHg 66%
    15:00 +6°C° 0 mm 7 mps 738 mmHg 67%
    16:00 +5°C° 0 mm 6 mps 738 mmHg 69%
    17:00 +5°C° 0 mm 6 mps 739 mmHg 71%
    18:00 +5°C° 0 mm 5 mps 740 mmHg 70%
    19:00 +3°C° 0 mm 5 mps 741 mmHg 70%
    20:00 +3°C° 0 mm 5 mps 742 mmHg 70%
    21:00 +3°C° 0 mm 4 mps 742 mmHg 69%
    22:00 +1°C° 0 mm 4 mps 742 mmHg 69%
    23:00 +2°C° 0 mm 3 mps 743 mmHg 68%

    26 September, Wednesday

    Time Temperature Precipitation Wind Pressure Humidity
    00:00 +1°C° 0 mm 4 mps 743 mmHg 73%
    01:00 +1°C° 0 mm 4 mps 743 mmHg 77%
    02:00 +1°C° 0 mm 4 mps 743 mmHg 81%
    03:00 +3°C° 0 mm 4 mps 743 mmHg 82%
    04:00 +3°C° 0 mm 4 mps 743 mmHg 83%
    05:00 +4°C° 0 mm 4 mps 742 mmHg 84%
    06:00 +3°C° 0.2 mm 5 mps 742 mmHg 85%
    07:00 +3°C° 0.2 mm 5 mps 742 mmHg 85%
    08:00 +3°C° 0.2 mm 5 mps 742 mmHg 85%
    09:00 +5°C° 0.2 mm 5 mps 742 mmHg 86%
    10:00 +6°C° 0.2 mm 5 mps 742 mmHg 86%
    11:00 +6°C° 0.2 mm 5 mps 741 mmHg 87%
    12:00 +7°C° 0.5 mm 5 mps 741 mmHg 88%
    13:00 +7°C° 0.5 mm 5 mps 740 mmHg 89%
    14:00 +7°C° 0.5 mm 5 mps 739 mmHg 89%
    15:00 +7°C° 0.5 mm 5 mps 739 mmHg 90%
    16:00 +7°C° 0.5 mm 5 mps 738 mmHg 90%
    17:00 +7°C° 0.5 mm 5 mps 737 mmHg 90%
    18:00 +7°C° 1.1 mm 6 mps 736 mmHg 90%
    19:00 +7°C° 1.1 mm 6 mps 736 mmHg 91%
    20:00 +6°C° 1.1 mm 7 mps 735 mmHg 91%
    21:00 +6°C° 1.5 mm 7 mps 734 mmHg 90%
    22:00 +8°C° 1.5 mm 7 mps 733 mmHg 90%
    23:00 +8°C° 1.5 mm 7 mps 732 mmHg 90%

    27 September, Thursday

    Time Temperature Precipitation Wind Pressure Humidity
    00:00 +8°C° 0.7 mm 7 mps 732 mmHg 90%
    01:00 +8°C° 0.7 mm 7 mps 731 mmHg 90%
    02:00 +8°C° 0.7 mm 7 mps 730 mmHg 90%
    03:00 +9°C° 1.4 mm 7 mps 730 mmHg 90%
    04:00 +9°C° 1.4 mm 7 mps 729 mmHg 90%
    05:00 +9°C° 1.4 mm 7 mps 729 mmHg 91%
    06:00 +9°C° 1.1 mm 6 mps 729 mmHg 90%
    07:00 +9°C° 1.1 mm 5 mps 729 mmHg 89%
    08:00 +10°C° 1.1 mm 4 mps 729 mmHg 88%
    09:00 +10°C° 0.6 mm 4 mps 728 mmHg 86%
    10:00 +9°C° 0.6 mm 5 mps 728 mmHg 83%
    11:00 +9°C° 0.6 mm 5 mps 728 mmHg 81%
    12:00 +9°C° 0.5 mm 5 mps 728 mmHg 78%
    13:00 +9°C° 0.5 mm 6 mps 728 mmHg 76%
    14:00 +9°C° 0.5 mm 6 mps 728 mmHg 74%
    15:00 +9°C° 0.2 mm 5 mps 728 mmHg 75%
    16:00 +8°C° 0.2 mm 5 mps 728 mmHg 77%
    17:00 +7°C° 0.2 mm 4 mps 728 mmHg 78%
    18:00 +7°C° 0 mm 4 mps 728 mmHg 78%
    19:00 +6°C° 0 mm 4 mps 728 mmHg 79%
    20:00 +6°C° 0 mm 4 mps 729 mmHg 79%
    21:00 +5°C° 0 mm 5 mps 729 mmHg 78%
    22:00 +5°C° 0 mm 5 mps 729 mmHg 76%
    23:00 +5°C° 0 mm 5 mps 729 mmHg 75%
    Show more